USA 99 (MILSTAR-1 1)

Last updated on Thu Nov 21 2024 00:02:40 GMT+0000 (Coordinated Universal Time)

1 22988U 94009A 24325.41183358 -.00000201 00000+0 00000+0 0 9992 2 22988 16.7534 33.8146 0003312 221.6270 222.7456 1.00271463 27204
UTC large
Height (km)
Speed (km/s)
/
Latitude / Longitude
Inclination (degrees)
Orbital Period (minutes)
Azimuth
Elevation
Range (km)
Doppler Factor

Next 0 passes for location: London (51.5072 / 0.1276)

Sorry there are no passes over London.